{"data":{"norad_id":69883,"epoch":"2026-09-19T22:55:49.321344Z","epoch_age_seconds":68680,"freshness":"FRESH","line1":"1 69883U 26156Q   26262.95543196  .00000512  00000+0  57078-4 0  9992","line2":"2 69883  97.7457 162.1072 0003767 261.2579  98.8213 14.91189497 11128","mean_motion":14.91189497,"eccentricity":0.0003767,"inclination_deg":97.7457,"raan_deg":162.1072,"arg_perigee_deg":261.2579,"mean_anomaly_deg":98.8213,"bstar":5.7078e-5,"rev_number":1112,"period_min":96.567203758947,"perigee_km":591.59888507508,"apogee_km":596.85186288764,"semimajor_km":6972.3623739814,"source":"CELESTRAK","updated_at":"2026-09-20T09:00:25.166248Z"}}